• Em Portugal
  • Lista de países
  • Para 7 dias
  • Temperatura da água
  • Mapas de satélite
  • Mapa do tempo
  • Widgets de tempo
  • user-avatar
    Iniciar Sessão

    Previsão horária em Makowszczyzna

    Hoje, 20 Agosto, Segunda-feira

    Tempo Temperatura Precipitação Vento Pressão Humidade
    00:00 +18°C° 0 mm 1 m/s 743 mmHg 84%
    01:00 +18°C° 0 mm 1 m/s 743 mmHg 84%
    02:00 +16°C° 0 mm 1 m/s 742 mmHg 85%
    03:00 +16°C° 0 mm 1 m/s 742 mmHg 85%
    04:00 +16°C° 0 mm 2 m/s 742 mmHg 86%
    05:00 +16°C° 0 mm 2 m/s 741 mmHg 87%
    06:00 +18°C° 0 mm 2 m/s 741 mmHg 83%
    07:00 +19°C° 0 mm 3 m/s 741 mmHg 79%
    08:00 +20°C° 0 mm 3 m/s 741 mmHg 76%
    09:00 +22°C° 0 mm 3 m/s 741 mmHg 69%
    10:00 +25°C° 0 mm 3 m/s 741 mmHg 63%
    11:00 +26°C° 0 mm 4 m/s 740 mmHg 56%
    12:00 +27°C° 0 mm 4 m/s 740 mmHg 54%
    13:00 +28°C° 0 mm 4 m/s 740 mmHg 51%
    14:00 +29°C° 0 mm 5 m/s 739 mmHg 48%
    15:00 +28°C° 0,2 mm 4 m/s 739 mmHg 54%
    16:00 +27°C° 0,2 mm 4 m/s 738 mmHg 60%
    17:00 +26°C° 0,2 mm 4 m/s 738 mmHg 67%
    18:00 +23°C° 0,1 mm 4 m/s 738 mmHg 73%
    19:00 +21°C° 0,1 mm 4 m/s 738 mmHg 80%
    20:00 +19°C° 0,1 mm 3 m/s 738 mmHg 87%
    21:00 +19°C° 0 mm 3 m/s 738 mmHg 89%
    22:00 +18°C° 0 mm 4 m/s 738 mmHg 90%
    23:00 +18°C° 0 mm 4 m/s 738 mmHg 92%

    Amanhã, 21 Agosto, Terça-feira

    Tempo Temperatura Precipitação Vento Pressão Humidade
    00:00 +17°C° 0 mm 4 m/s 738 mmHg 91%
    01:00 +15°C° 0 mm 4 m/s 738 mmHg 90%
    02:00 +15°C° 0 mm 4 m/s 738 mmHg 89%
    03:00 +14°C° 0 mm 4 m/s 739 mmHg 88%
    04:00 +14°C° 0 mm 4 m/s 739 mmHg 88%
    05:00 +13°C° 0 mm 4 m/s 739 mmHg 87%
    06:00 +14°C° 0 mm 4 m/s 740 mmHg 85%
    07:00 +15°C° 0 mm 4 m/s 740 mmHg 83%
    08:00 +17°C° 0 mm 4 m/s 741 mmHg 82%
    09:00 +18°C° 0,1 mm 4 m/s 741 mmHg 76%
    10:00 +19°C° 0,1 mm 4 m/s 742 mmHg 71%
    11:00 +20°C° 0,1 mm 4 m/s 742 mmHg 65%
    12:00 +20°C° 0,1 mm 4 m/s 742 mmHg 63%
    13:00 +21°C° 0,1 mm 4 m/s 742 mmHg 60%
    14:00 +21°C° 0,1 mm 4 m/s 743 mmHg 57%
    15:00 +21°C° 0 mm 4 m/s 743 mmHg 58%
    16:00 +20°C° 0 mm 4 m/s 743 mmHg 59%
    17:00 +20°C° 0 mm 4 m/s 743 mmHg 60%
    18:00 +18°C° 0 mm 4 m/s 744 mmHg 66%
    19:00 +17°C° 0 mm 3 m/s 744 mmHg 72%
    20:00 +14°C° 0 mm 3 m/s 744 mmHg 77%
    21:00 +13°C° 0 mm 3 m/s 745 mmHg 80%
    22:00 +13°C° 0 mm 2 m/s 745 mmHg 83%
    23:00 +12°C° 0 mm 2 m/s 745 mmHg 86%

    Depois de amanhã, 22 Agosto, Quarta-feira

    Tempo Temperatura Precipitação Vento Pressão Humidade
    00:00 +10°C° 0 mm 2 m/s 746 mmHg 88%
    01:00 +10°C° 0 mm 2 m/s 746 mmHg 89%
    02:00 +10°C° 0 mm 1 m/s 746 mmHg 91%
    03:00 +10°C° 0 mm 1 m/s 746 mmHg 91%
    04:00 +10°C° 0 mm 1 m/s 746 mmHg 92%
    05:00 +9°C° 0 mm 1 m/s 747 mmHg 92%
    06:00 +11°C° 0 mm 1 m/s 747 mmHg 86%
    07:00 +12°C° 0 mm 1 m/s 747 mmHg 81%
    08:00 +14°C° 0 mm 1 m/s 747 mmHg 75%
    09:00 +16°C° 0 mm 1 m/s 747 mmHg 68%
    10:00 +18°C° 0 mm 1 m/s 747 mmHg 61%
    11:00 +20°C° 0 mm 1 m/s 747 mmHg 55%
    12:00 +21°C° 0 mm 1 m/s 747 mmHg 51%
    13:00 +21°C° 0 mm 1 m/s 747 mmHg 48%
    14:00 +22°C° 0 mm 1 m/s 747 mmHg 44%
    15:00 +22°C° 0 mm 1 m/s 746 mmHg 45%
    16:00 +22°C° 0 mm 1 m/s 746 mmHg 45%
    17:00 +22°C° 0 mm 1 m/s 746 mmHg 46%
    18:00 +20°C° 0 mm 1 m/s 746 mmHg 51%
    19:00 +19°C° 0 mm 1 m/s 745 mmHg 57%
    20:00 +16°C° 0 mm 1 m/s 745 mmHg 63%
    21:00 +15°C° 0 mm 2 m/s 745 mmHg 66%
    22:00 +14°C° 0 mm 2 m/s 745 mmHg 69%
    23:00 +13°C° 0 mm 3 m/s 745 mmHg 72%

    23 Agosto, Quinta-feira

    Tempo Temperatura Precipitação Vento Pressão Humidade
    00:00 +13°C° 0 mm 3 m/s 745 mmHg 74%
    01:00 +12°C° 0 mm 3 m/s 745 mmHg 76%
    02:00 +12°C° 0 mm 3 m/s 745 mmHg 78%
    03:00 +12°C° 0 mm 3 m/s 744 mmHg 80%
    04:00 +12°C° 0 mm 3 m/s 744 mmHg 82%
    05:00 +12°C° 0 mm 3 m/s 744 mmHg 84%
    06:00 +13°C° 0 mm 3 m/s 744 mmHg 80%
    07:00 +14°C° 0 mm 4 m/s 744 mmHg 76%
    08:00 +17°C° 0 mm 4 m/s 744 mmHg 73%
    09:00 +19°C° 0 mm 4 m/s 744 mmHg 68%
    10:00 +21°C° 0 mm 4 m/s 744 mmHg 64%
    11:00 +23°C° 0 mm 4 m/s 743 mmHg 60%
    12:00 +23°C° 0 mm 4 m/s 743 mmHg 58%
    13:00 +25°C° 0 mm 4 m/s 743 mmHg 56%
    14:00 +26°C° 0 mm 4 m/s 742 mmHg 54%
    15:00 +25°C° 0 mm 4 m/s 742 mmHg 56%
    16:00 +25°C° 0 mm 3 m/s 742 mmHg 59%
    17:00 +25°C° 0 mm 3 m/s 741 mmHg 62%
    18:00 +22°C° 0 mm 3 m/s 741 mmHg 67%
    19:00 +21°C° 0 mm 3 m/s 741 mmHg 71%
    20:00 +19°C° 0 mm 3 m/s 741 mmHg 76%
    21:00 +19°C° 0 mm 3 m/s 741 mmHg 76%
    22:00 +18°C° 0 mm 3 m/s 740 mmHg 77%
    23:00 +18°C° 0 mm 4 m/s 740 mmHg 77%

    24 Agosto, Sexta-feira

    Tempo Temperatura Precipitação Vento Pressão Humidade
    00:00 +18°C° 0 mm 4 m/s 740 mmHg 80%
    01:00 +17°C° 0 mm 4 m/s 740 mmHg 82%
    02:00 +17°C° 0 mm 4 m/s 739 mmHg 85%
    03:00 +17°C° 0 mm 4 m/s 739 mmHg 86%
    04:00 +17°C° 0 mm 4 m/s 739 mmHg 88%
    05:00 +15°C° 0 mm 4 m/s 738 mmHg 89%
    06:00 +17°C° 0 mm 4 m/s 738 mmHg 87%
    07:00 +18°C° 0 mm 4 m/s 738 mmHg 84%
    08:00 +19°C° 0 mm 5 m/s 738 mmHg 81%
    09:00 +21°C° 0 mm 5 m/s 738 mmHg 77%
    10:00 +22°C° 0 mm 6 m/s 738 mmHg 72%
    11:00 +24°C° 0 mm 6 m/s 737 mmHg 68%
    12:00 +26°C° 0,4 mm 6 m/s 737 mmHg 64%
    13:00 +28°C° 0,4 mm 6 m/s 737 mmHg 61%
    14:00 +29°C° 0,4 mm 6 m/s 737 mmHg 58%
    15:00 +28°C° 0,8 mm 5 m/s 736 mmHg 60%
    16:00 +28°C° 0,8 mm 4 m/s 736 mmHg 63%
    17:00 +27°C° 0,8 mm 3 m/s 736 mmHg 65%
    18:00 +26°C° 0,4 mm 4 m/s 736 mmHg 67%
    19:00 +25°C° 0,4 mm 4 m/s 736 mmHg 70%
    20:00 +23°C° 0,4 mm 4 m/s 736 mmHg 72%
    21:00 +22°C° 1,4 mm 4 m/s 736 mmHg 77%
    22:00 +21°C° 1,4 mm 4 m/s 736 mmHg 81%
    23:00 +20°C° 1,4 mm 4 m/s 736 mmHg 86%

    25 Agosto, Sábado

    Tempo Temperatura Precipitação Vento Pressão Humidade
    00:00 +19°C° 1,3 mm 4 m/s 736 mmHg 89%
    01:00 +19°C° 1,3 mm 3 m/s 736 mmHg 92%
    02:00 +18°C° 1,3 mm 3 m/s 736 mmHg 95%
    03:00 +17°C° 0 mm 3 m/s 736 mmHg 95%
    04:00 +17°C° 0 mm 3 m/s 736 mmHg 95%
    05:00 +16°C° 0 mm 3 m/s 736 mmHg 95%
    06:00 +16°C° 0,1 mm 3 m/s 737 mmHg 92%
    07:00 +17°C° 0,1 mm 3 m/s 737 mmHg 90%
    08:00 +17°C° 0,1 mm 3 m/s 737 mmHg 87%
    09:00 +18°C° 0,1 mm 3 m/s 738 mmHg 82%
    10:00 +19°C° 0,1 mm 3 m/s 738 mmHg 78%
    11:00 +20°C° 0,1 mm 3 m/s 738 mmHg 74%
    12:00 +20°C° 0,1 mm 3 m/s 738 mmHg 74%
    13:00 +20°C° 0,1 mm 3 m/s 738 mmHg 74%
    14:00 +20°C° 0,1 mm 3 m/s 738 mmHg 75%
    15:00 +20°C° 0,1 mm 3 m/s 737 mmHg 77%
    16:00 +19°C° 0,1 mm 3 m/s 737 mmHg 80%
    17:00 +19°C° 0,1 mm 3 m/s 737 mmHg 83%
    18:00 +18°C° 0,5 mm 3 m/s 737 mmHg 85%
    19:00 +17°C° 0,5 mm 4 m/s 737 mmHg 88%
    20:00 +15°C° 0,5 mm 4 m/s 737 mmHg 91%
    21:00 +15°C° 0,5 mm 4 m/s 736 mmHg 92%
    22:00 +16°C° 0,5 mm 3 m/s 736 mmHg 93%
    23:00 +14°C° 0,5 mm 3 m/s 736 mmHg 94%
    Mostrar mais